| time (UTC) | temp F | wind direction | speed MPH | gust MPH | rain 1hr in | rain 24hr in | rain mn in | humidity % | barometer mb |
| 20260506013527 | 36 | 325 | 1.0 | 4.0 | 0.00 | 0.06 | 0.00 | 82 | 1014.2 |
| 20260506013029 | 35 | 110 | 1.0 | 3.0 | 0.00 | 0.06 | 0.00 | 81 | 1014.2 |
| 20260506012525 | 35 | 80 | 0.0 | 4.0 | 0.00 | 0.06 | 0.00 | 80 | 1014.1 |
| 20260506012024 | 35 | 86 | 1.0 | 4.0 | 0.00 | 0.06 | 0.00 | 80 | 1014.0 |
| 20260506011526 | 35 | 96 | 2.0 | 4.0 | 0.00 | 0.06 | 0.00 | 80 | 1014.0 |
| 20260506011023 | 35 | 104 | 3.0 | 4.0 | 0.00 | 0.06 | 0.00 | 80 | 1013.9 |
| 20260506010523 | 35 | 90 | 2.0 | 4.0 | 0.00 | 0.06 | 0.00 | 79 | 1013.8 |
| 20260506010027 | 35 | 107 | 2.0 | 4.0 | 0.00 | 0.06 | 0.00 | 78 | 1013.9 |
| 20260506005521 | 35 | 89 | 2.0 | 4.0 | 0.00 | 0.06 | 0.00 | 79 | 1013.9 |
| 20260506005121 | 35 | 98 | 3.0 | 6.0 | 0.00 | 0.06 | 0.00 | 79 | 1013.8 |
| 20260506004534 | 35 | 109 | 3.0 | 6.0 | 0.00 | 0.06 | 0.00 | 79 | 1013.8 |
| 20260506004021 | 35 | 164 | 2.0 | 7.0 | 0.00 | 0.06 | 0.00 | 79 | 1013.8 |
| 20260506003521 | 35 | 108 | 4.0 | 7.0 | 0.00 | 0.06 | 0.00 | 79 | 1013.7 |
| 20260506003020 | 35 | 97 | 4.0 | 7.0 | 0.00 | 0.06 | 0.00 | 80 | 1013.7 |
| 20260506002519 | 35 | 95 | 4.0 | 7.0 | 0.00 | 0.06 | 0.00 | 80 | 1013.7 |
| 20260506002019 | 35 | 93 | 4.0 | 7.0 | 0.00 | 0.06 | 0.00 | 80 | 1013.8 |
| 20260506001518 | 35 | 90 | 4.0 | 7.0 | 0.00 | 0.06 | 0.00 | 81 | 1013.8 |
| 20260506001018 | 35 | 90 | 4.0 | 7.0 | 0.00 | 0.06 | 0.00 | 81 | 1014.0 |
| 20260506000516 | 35 | 109 | 4.0 | 6.0 | 0.00 | 0.06 | 0.06 | 81 | 1014.0 |
| 20260506000019 | 35 | 96 | 3.0 | 6.0 | 0.00 | 0.06 | 0.06 | 81 | 1014.0 |
| 20260505235516 | 35 | 101 | 4.0 | 6.0 | 0.00 | 0.06 | 0.06 | 81 | 1014.0 |
| 20260505235116 | 35 | 117 | 4.0 | 6.0 | 0.00 | 0.06 | 0.06 | 81 | 1014.1 |
| 20260505234518 | 35 | 96 | 4.0 | 6.0 | 0.00 | 0.06 | 0.06 | 81 | 1014.1 |
| 20260505234014 | 35 | 103 | 4.0 | 6.0 | 0.00 | 0.06 | 0.06 | 81 | 1014.0 |
| 20260505233516 | 35 | 107 | 3.0 | 6.0 | 0.00 | 0.06 | 0.06 | 81 | 1014.0 |
| 20260505233013 | 35 | 105 | 4.0 | 6.0 | 0.00 | 0.06 | 0.06 | 82 | 1014.0 |
| 20260505232514 | 35 | 98 | 3.0 | 7.0 | 0.00 | 0.06 | 0.06 | 82 | 1014.0 |
| 20260505232012 | 35 | 98 | 4.0 | 7.0 | 0.00 | 0.06 | 0.06 | 82 | 1014.0 |
| 20260505231612 | 35 | 106 | 3.0 | 7.0 | 0.00 | 0.06 | 0.06 | 82 | 1014.0 |
| 20260505231011 | 35 | 90 | 3.0 | 6.0 | 0.00 | 0.06 | 0.06 | 81 | 1013.9 |
| 20260505230516 | 35 | 96 | 3.0 | 7.0 | 0.00 | 0.06 | 0.06 | 81 | 1013.9 |
| 20260505230015 | 35 | 100 | 4.0 | 7.0 | 0.00 | 0.06 | 0.06 | 81 | 1013.9 |
| 20260505225511 | 35 | 88 | 3.0 | 7.0 | 0.00 | 0.06 | 0.06 | 81 | 1014.0 |
| 20260505225114 | 36 | 80 | 3.0 | 6.0 | 0.00 | 0.06 | 0.06 | 82 | 1014.0 |
| 20260505224514 | 35 | 101 | 3.0 | 6.0 | 0.00 | 0.06 | 0.06 | 82 | 1014.0 |
| 20260505224013 | 35 | 103 | 3.0 | 6.0 | 0.00 | 0.06 | 0.06 | 81 | 1014.0 |
| 20260505223517 | 35 | 109 | 3.0 | 6.0 | 0.00 | 0.06 | 0.06 | 81 | 1014.0 |
| 20260505223012 | 35 | 109 | 2.0 | 4.0 | 0.00 | 0.06 | 0.06 | 81 | 1014.0 |
| 20260505222512 | 36 | 101 | 2.0 | 6.0 | 0.00 | 0.06 | 0.06 | 80 | 1014.0 |
| 20260505222012 | 36 | 113 | 3.0 | 6.0 | 0.00 | 0.06 | 0.06 | 80 | 1014.0 |
| 20260505221511 | 36 | 111 | 3.0 | 7.0 | 0.00 | 0.06 | 0.06 | 80 | 1014.0 |
| 20260505221012 | 36 | 105 | 3.0 | 7.0 | 0.00 | 0.06 | 0.06 | 81 | 1014.0 |
| 20260505220510 | 36 | 94 | 4.0 | 5.0 | 0.00 | 0.06 | 0.06 | 81 | 1013.9 |
| 20260505220023 | 36 | 103 | 4.0 | 6.0 | 0.00 | 0.06 | 0.06 | 81 | 1014.0 |
| 20260505215512 | 36 | 101 | 3.0 | 6.0 | 0.00 | 0.06 | 0.06 | 81 | 1013.9 |
| 20260505215109 | 36 | 113 | 3.0 | 6.0 | 0.00 | 0.06 | 0.06 | 80 | 1013.9 |
| 20260505214513 | 36 | 108 | 2.0 | 6.0 | 0.00 | 0.06 | 0.06 | 80 | 1013.8 |
| 20260505214008 | 36 | 107 | 4.0 | 6.0 | 0.00 | 0.06 | 0.06 | 80 | 1013.7 |
| 20260505213508 | 36 | 105 | 3.0 | 6.0 | 0.00 | 0.06 | 0.06 | 80 | 1013.7 |
| 20260505213009 | 36 | 107 | 4.0 | 6.0 | 0.00 | 0.06 | 0.06 | 80 | 1013.7 |
| 20260505212508 | 36 | 101 | 3.0 | 6.0 | 0.00 | 0.06 | 0.06 | 80 | 1013.7 |
| 20260505212008 | 36 | 109 | 3.0 | 6.0 | 0.00 | 0.06 | 0.06 | 80 | 1013.6 |
| 20260505211507 | 36 | 109 | 4.0 | 6.0 | 0.00 | 0.06 | 0.06 | 80 | 1013.7 |
| 20260505211010 | 36 | 101 | 3.0 | 4.0 | 0.00 | 0.06 | 0.06 | 81 | 1013.7 |
| 20260505210506 | 36 | 112 | 3.0 | 6.0 | 0.00 | 0.06 | 0.06 | 80 | 1013.7 |
| 20260505210008 | 36 | 97 | 2.0 | 6.0 | 0.00 | 0.06 | 0.06 | 80 | 1013.7 |
| 20260505205513 | 36 | 107 | 3.0 | 6.0 | 0.00 | 0.06 | 0.06 | 80 | 1013.6 |
| 20260505205106 | 36 | 109 | 3.0 | 6.0 | 0.00 | 0.06 | 0.06 | 80 | 1013.6 |
| 20260505204514 | 36 | 112 | 3.0 | 6.0 | 0.00 | 0.06 | 0.06 | 79 | 1013.6 |
| 20260505204106 | 36 | 107 | 3.0 | 6.0 | 0.00 | 0.06 | 0.06 | 79 | 1013.6 |
| 20260505203505 | 37 | 112 | 3.0 | 6.0 | 0.00 | 0.06 | 0.06 | 79 | 1013.6 |
| 20260505203005 | 37 | 88 | 3.0 | 4.0 | 0.00 | 0.06 | 0.06 | 79 | 1013.6 |
| 20260505202505 | 37 | 101 | 3.0 | 6.0 | 0.00 | 0.06 | 0.06 | 78 | 1013.6 |
| 20260505202005 | 38 | 95 | 2.0 | 4.0 | 0.00 | 0.06 | 0.06 | 78 | 1013.6 |
| 20260505201505 | 38 | 103 | 2.0 | 4.0 | 0.00 | 0.06 | 0.06 | 78 | 1013.6 |
| 20260505201004 | 38 | 101 | 3.0 | 6.0 | 0.00 | 0.06 | 0.06 | 78 | 1013.6 |
| 20260505200512 | 38 | 102 | 3.0 | 6.0 | 0.00 | 0.06 | 0.06 | 77 | 1013.6 |
| 20260505200008 | 39 | 94 | 2.0 | 6.0 | 0.00 | 0.06 | 0.06 | 77 | 1013.7 |
| 20260505195503 | 39 | 76 | 3.0 | 6.0 | 0.00 | 0.06 | 0.06 | 76 | 1013.7 |
| 20260505195104 | 40 | 103 | 3.0 | 8.0 | 0.00 | 0.06 | 0.06 | 75 | 1013.7 |
| 20260505194505 | 40 | 92 | 3.0 | 8.0 | 0.00 | 0.06 | 0.06 | 75 | 1013.6 |
| 20260505194006 | 40 | 49 | 4.0 | 12.0 | 0.00 | 0.06 | 0.06 | 74 | 1013.7 |
| 20260505193503 | 41 | 41 | 5.0 | 12.0 | 0.00 | 0.06 | 0.06 | 74 | 1013.6 |
| 20260505193009 | 41 | 28 | 1.0 | 3.0 | 0.00 | 0.06 | 0.06 | 71 | 1013.4 |
| 20260505192502 | 41 | 43 | 1.0 | 3.0 | 0.00 | 0.06 | 0.06 | 72 | 1013.4 |
| 20260505192002 | 41 | 71 | 1.0 | 3.0 | 0.00 | 0.06 | 0.06 | 71 | 1013.3 |
| 20260505191606 | 41 | 26 | 0.0 | 4.0 | 0.00 | 0.06 | 0.06 | 71 | 1013.3 |
| 20260505191101 | 41 | 39 | 0.0 | 4.0 | 0.00 | 0.06 | 0.06 | 71 | 1013.2 |
| 20260505190601 | 41 | 67 | 1.0 | 4.0 | 0.00 | 0.06 | 0.06 | 71 | 1013.1 |
| 20260505190118 | 41 | 55 | 2.0 | 7.0 | 0.00 | 0.06 | 0.06 | 69 | 1013.1 |
| 20260505185559 | 41 | 53 | 3.0 | 6.0 | 0.00 | 0.06 | 0.06 | 69 | 1013.1 |
| 20260505185059 | 41 | 360 | 1.0 | 4.0 | 0.00 | 0.06 | 0.06 | 69 | 1013.1 |
| 20260505184609 | 41 | 9 | 1.0 | 4.0 | 0.00 | 0.06 | 0.06 | 69 | 1013.1 |
| 20260505184100 | 41 | 5 | 1.0 | 2.0 | 0.00 | 0.06 | 0.06 | 69 | 1013.1 |
| 20260505183659 | 41 | 125 | 0.0 | 3.0 | 0.00 | 0.06 | 0.06 | 69 | 1013.1 |
| 20260505183058 | 41 | 120 | 1.0 | 4.0 | 0.00 | 0.06 | 0.06 | 70 | 1013.0 |
| 20260505182557 | 41 | 46 | 2.0 | 8.0 | 0.00 | 0.06 | 0.06 | 71 | 1013.0 |
| 20260505182101 | 40 | 60 | 3.0 | 8.0 | 0.00 | 0.06 | 0.06 | 73 | 1013.0 |
| 20260505181600 | 40 | 90 | 3.0 | 7.0 | 0.00 | 0.06 | 0.06 | 75 | 1013.0 |
| 20260505181102 | 40 | 92 | 2.0 | 10.0 | 0.00 | 0.06 | 0.06 | 74 | 1013.0 |
| 20260505180559 | 40 | 92 | 4.0 | 10.0 | 0.00 | 0.06 | 0.06 | 74 | 1013.0 |
| 20260505180056 | 39 | 92 | 5.0 | 10.0 | 0.00 | 0.06 | 0.06 | 74 | 1013.1 |
| 20260505175557 | 39 | 27 | 3.0 | 9.0 | 0.00 | 0.06 | 0.06 | 74 | 1013.1 |
| 20260505175057 | 40 | 24 | 3.0 | 16.0 | 0.00 | 0.06 | 0.06 | 75 | 1013.2 |
| 20260505174558 | 41 | 5 | 3.0 | 16.0 | 0.00 | 0.06 | 0.06 | 75 | 1013.3 |
| 20260505174058 | 42 | 360 | 9.0 | 15.0 | 0.00 | 0.06 | 0.06 | 73 | 1013.2 |
| 20260505173556 | 42 | 355 | 1.0 | 3.0 | 0.00 | 0.06 | 0.06 | 71 | 1013.0 |
| 20260505173057 | 42 | 5 | 1.0 | 3.0 | 0.00 | 0.06 | 0.06 | 71 | 1012.9 |
| 20260505172557 | 42 | 126 | 0.0 | 3.0 | 0.00 | 0.06 | 0.06 | 70 | 1012.8 |
| 20260505172057 | 42 | 171 | 2.0 | 4.0 | 0.00 | 0.06 | 0.06 | 71 | 1012.9 |
| 20260505171556 | 42 | 174 | 2.0 | 4.0 | 0.00 | 0.06 | 0.06 | 72 | 1012.8 |
| 20260505171058 | 42 | 206 | 1.0 | 3.0 | 0.00 | 0.06 | 0.06 | 72 | 1012.8 |
| 20260505170604 | 42 | 211 | 2.0 | 3.0 | 0.00 | 0.06 | 0.06 | 73 | 1012.8 |
| 20260505170105 | 42 | 216 | 1.0 | 3.0 | 0.00 | 0.06 | 0.06 | 73 | 1012.8 |
| 20260505165555 | 42 | 194 | 2.0 | 3.0 | 0.00 | 0.06 | 0.06 | 73 | 1012.8 |
| 20260505165056 | 43 | 170 | 0.0 | 5.0 | 0.00 | 0.06 | 0.06 | 73 | 1012.9 |
| 20260505164556 | 43 | 153 | 1.0 | 5.0 | 0.00 | 0.06 | 0.06 | 73 | 1012.8 |
| 20260505164056 | 43 | 207 | 3.0 | 5.0 | 0.00 | 0.06 | 0.06 | 72 | 1012.8 |
| 20260505163558 | 43 | 138 | 1.0 | 6.0 | 0.00 | 0.06 | 0.06 | 73 | 1012.8 |
| 20260505163102 | 43 | 224 | 4.0 | 6.0 | 0.00 | 0.06 | 0.06 | 73 | 1012.8 |
| 20260505162555 | 44 | 182 | 3.0 | 5.0 | 0.00 | 0.06 | 0.06 | 74 | 1012.7 |
| 20260505162054 | 44 | 215 | 2.0 | 4.0 | 0.01 | 0.06 | 0.06 | 76 | 1012.8 |
| 20260505161555 | 43 | 225 | 1.0 | 4.0 | 0.01 | 0.06 | 0.06 | 76 | 1012.7 |
| 20260505161052 | 43 | 223 | 1.0 | 4.0 | 0.01 | 0.06 | 0.06 | 76 | 1012.7 |
| 20260505160552 | 43 | 223 | 1.0 | 4.0 | 0.01 | 0.06 | 0.06 | 75 | 1012.8 |
| 20260505153105 | 42 | 355 | 1.0 | 4.0 | 0.01 | 0.06 | 0.06 | 81 | 1012.9 |
| 20260505152549 | 41 | 162 | 0.0 | 8.0 | 0.01 | 0.06 | 0.06 | 80 | 1013.0 |
| 20260505152050 | 41 | 71 | 3.0 | 8.0 | 0.01 | 0.06 | 0.06 | 77 | 1013.0 |
| 20260505151550 | 42 | 5 | 2.0 | 6.0 | 0.00 | 0.05 | 0.05 | 76 | 1013.0 |
| 20260505151049 | 43 | 100 | 2.0 | 7.0 | 0.00 | 0.05 | 0.05 | 77 | 1013.0 |
| 20260505150549 | 43 | 204 | 3.0 | 8.0 | 0.00 | 0.05 | 0.05 | 80 | 1012.8 |
| 20260505150107 | 42 | 229 | 5.0 | 8.0 | 0.00 | 0.05 | 0.05 | 79 | 1012.8 |
| 20260505140546 | 39 | 355 | 1.0 | 5.0 | 0.00 | 0.09 | 0.05 | 83 | 1013.1 |
| 20260505124543 | 39 | 182 | 5.0 | 9.0 | 0.01 | 0.16 | 0.05 | 85 | 1013.0 |
| 20260505124043 | 40 | 211 | 5.0 | 9.0 | 0.01 | 0.16 | 0.05 | 86 | 1013.0 |
| 20260505123542 | 39 | 191 | 5.0 | 10.0 | 0.01 | 0.16 | 0.05 | 86 | 1013.1 |
| 20260505123104 | 40 | 216 | 6.0 | 10.0 | 0.01 | 0.16 | 0.05 | 86 | 1013.1 |
| 20260505122542 | 39 | 196 | 6.0 | 11.0 | 0.01 | 0.16 | 0.05 | 86 | 1013.0 |
| 20260505122043 | 39 | 211 | 6.0 | 12.0 | 0.01 | 0.16 | 0.05 | 86 | 1012.9 |
| 20260505121541 | 39 | 143 | 4.0 | 13.0 | 0.02 | 0.16 | 0.05 | 87 | 1012.8 |
| 20260505121044 | 39 | 190 | 6.0 | 13.0 | 0.02 | 0.16 | 0.05 | 88 | 1012.8 |
| 20260505120540 | 39 | 188 | 7.0 | 12.0 | 0.02 | 0.16 | 0.05 | 88 | 1012.8 |
| 20260505120049 | 38 | 160 | 4.0 | 12.0 | 0.03 | 0.16 | 0.05 | 88 | 1012.9 |
| 20260505115541 | 37 | 181 | 6.0 | 9.0 | 0.04 | 0.16 | 0.05 | 88 | 1012.9 |
| 20260505115040 | 36 | 202 | 6.0 | 10.0 | 0.04 | 0.16 | 0.05 | 87 | 1013.1 |
| 20260505114551 | 36 | 169 | 6.0 | 12.0 | 0.04 | 0.16 | 0.05 | 87 | 1013.1 |
| 20260505114040 | 37 | 174 | 4.0 | 8.0 | 0.03 | 0.15 | 0.04 | 87 | 1013.1 |
| 20260505113539 | 37 | 198 | 5.0 | 8.0 | 0.03 | 0.15 | 0.04 | 87 | 1013.1 |
| 20260505113039 | 36 | 206 | 4.0 | 8.0 | 0.03 | 0.15 | 0.04 | 86 | 1013.1 |
| 20260505112538 | 36 | 150 | 4.0 | 8.0 | 0.03 | 0.15 | 0.04 | 85 | 1013.1 |
| 20260505112037 | 36 | 175 | 5.0 | 8.0 | 0.03 | 0.15 | 0.04 | 84 | 1013.1 |
| 20260505111538 | 36 | 143 | 4.0 | 8.0 | 0.03 | 0.15 | 0.04 | 83 | 1013.1 |
| 20260505111037 | 36 | 202 | 5.0 | 8.0 | 0.02 | 0.14 | 0.03 | 82 | 1013.2 |
| 20260505110537 | 37 | 200 | 3.0 | 8.0 | 0.02 | 0.14 | 0.02 | 81 | 1013.1 |
| 20260505102033 | 40 | 257 | 6.0 | 13.0 | 0.00 | 0.13 | 0.01 | 73 | 1012.8 |
| 20260505101537 | 40 | 232 | 11.0 | 15.0 | 0.00 | 0.13 | 0.01 | 74 | 1012.6 |
| 20260505101031 | 40 | 186 | 5.0 | 12.0 | 0.00 | 0.13 | 0.01 | 71 | 1012.3 |
| 20260505100535 | 41 | 227 | 9.0 | 12.0 | 0.00 | 0.13 | 0.01 | 72 | 1012.4 |
| 20260505100033 | 41 | 186 | 2.0 | 10.0 | 0.00 | 0.13 | 0.01 | 66 | 1012.3 |
| 20260505095531 | 42 | 275 | 6.0 | 13.0 | 0.00 | 0.13 | 0.01 | 68 | 1012.3 |
| 20260505095030 | 42 | 218 | 4.0 | 11.0 | 0.00 | 0.13 | 0.01 | 65 | 1012.0 |
| 20260505094531 | 42 | 227 | 4.0 | 11.0 | 0.00 | 0.13 | 0.01 | 65 | 1012.0 |
| 20260505094031 | 42 | 223 | 7.0 | 11.0 | 0.00 | 0.13 | 0.01 | 65 | 1012.0 |
| 20260505093530 | 42 | 213 | 5.0 | 8.0 | 0.00 | 0.13 | 0.01 | 63 | 1012.0 |
| 20260505093037 | 42 | 209 | 4.0 | 8.0 | 0.00 | 0.13 | 0.01 | 64 | 1012.0 |
| 20260505092530 | 42 | 202 | 5.0 | 9.0 | 0.00 | 0.13 | 0.01 | 63 | 1012.0 |
| 20260505092028 | 42 | 217 | 6.0 | 9.0 | 0.00 | 0.13 | 0.01 | 63 | 1012.0 |
| 20260505091539 | 42 | 203 | 5.0 | 8.0 | 0.00 | 0.13 | 0.01 | 60 | 1012.0 |
| 20260505091028 | 42 | 195 | 4.0 | 7.0 | 0.00 | 0.13 | 0.01 | 60 | 1011.9 |
| 20260505090528 | 42 | 213 | 4.0 | 8.0 | 0.00 | 0.13 | 0.01 | 60 | 1012.0 |
| 20260505090043 | 43 | 189 | 3.0 | 8.0 | 0.00 | 0.13 | 0.01 | 61 | 1012.0 |
| 20260505085526 | 43 | 200 | 5.0 | 8.0 | 0.01 | 0.13 | 0.01 | 63 | 1012.0 |
| 20260505085026 | 42 | 209 | 3.0 | 7.0 | 0.01 | 0.13 | 0.01 | 67 | 1012.0 |
| 20260505084526 | 42 | 213 | 3.0 | 9.0 | 0.01 | 0.13 | 0.01 | 66 | 1011.9 |
| 20260505084023 | 42 | 233 | 5.0 | 9.0 | 0.01 | 0.13 | 0.01 | 69 | 1012.0 |
| 20260505083522 | 41 | 212 | 3.0 | 6.0 | 0.01 | 0.13 | 0.01 | 67 | 1012.0 |
| 20260505083026 | 41 | 239 | 2.0 | 6.0 | 0.01 | 0.13 | 0.01 | 68 | 1011.9 |
| 20260505082524 | 41 | 227 | 4.0 | 6.0 | 0.01 | 0.13 | 0.01 | 69 | 1011.9 |
| 20260505082021 | 41 | 225 | 3.0 | 7.0 | 0.01 | 0.13 | 0.01 | 70 | 1011.8 |
| 20260505081529 | 41 | 219 | 3.0 | 6.0 | 0.01 | 0.13 | 0.01 | 72 | 1011.9 |
| 20260505081019 | 41 | 177 | 1.0 | 5.0 | 0.01 | 0.13 | 0.01 | 74 | 1011.8 |
| 20260505080518 | 40 | 190 | 2.0 | 5.0 | 0.01 | 0.13 | 0.01 | 74 | 1011.9 |
| 20260505080038 | 40 | 200 | 2.0 | 4.0 | 0.01 | 0.13 | 0.01 | 75 | 1011.9 |
| 20260505075515 | 40 | 219 | 2.0 | 4.0 | 0.01 | 0.13 | 0.01 | 75 | 1011.9 |
| 20260505075014 | 40 | 132 | 1.0 | 2.0 | 0.00 | 0.12 | 0.00 | 78 | 1012.1 |
| 20260505074515 | 39 | 129 | 1.0 | 2.0 | 0.00 | 0.12 | 0.00 | 78 | 1012.1 |
| 20260505074013 | 39 | 174 | 1.0 | 4.0 | 0.00 | 0.12 | 0.00 | 77 | 1012.1 |
| 20260505073512 | 38 | 167 | 1.0 | 3.0 | 0.00 | 0.12 | 0.00 | 79 | 1012.1 |
| 20260505073015 | 37 | 135 | 1.0 | 3.0 | 0.00 | 0.12 | 0.00 | 79 | 1012.2 |
| 20260505072509 | 37 | 138 | 1.0 | 3.0 | 0.00 | 0.12 | 0.00 | 79 | 1012.2 |
| 20260505072012 | 36 | 111 | 1.0 | 3.0 | 0.00 | 0.12 | 0.00 | 79 | 1012.2 |
| 20260505071509 | 36 | 132 | 1.0 | 3.0 | 0.00 | 0.12 | 0.00 | 79 | 1012.1 |
| 20260505071008 | 36 | 126 | 2.0 | 3.0 | 0.00 | 0.12 | 0.00 | 79 | 1012.2 |
| 20260505070510 | 36 | 128 | 1.0 | 3.0 | 0.00 | 0.12 | 0.00 | 79 | 1012.2 |
| 20260505070010 | 36 | 126 | 1.0 | 3.0 | 0.00 | 0.12 | 0.00 | 79 | 1012.3 |
| 20260505065508 | 36 | 138 | 1.0 | 4.0 | 0.00 | 0.12 | 0.00 | 79 | 1012.3 |
| 20260505065006 | 35 | 135 | 2.0 | 3.0 | 0.00 | 0.12 | 0.00 | 80 | 1012.3 |
| 20260505064508 | 35 | 133 | 1.0 | 3.0 | 0.00 | 0.12 | 0.00 | 80 | 1012.2 |
| 20260505064012 | 35 | 147 | 1.0 | 3.0 | 0.00 | 0.12 | 0.00 | 81 | 1012.2 |
| 20260505063513 | 35 | 149 | 1.0 | 3.0 | 0.00 | 0.12 | 0.00 | 81 | 1012.2 |
| 20260505063007 | 35 | 141 | 1.0 | 3.0 | 0.00 | 0.12 | 0.00 | 81 | 1012.2 |
| 20260505062507 | 35 | 141 | 1.0 | 3.0 | 0.00 | 0.12 | 0.00 | 82 | 1012.1 |
| 20260505062006 | 35 | 146 | 2.0 | 3.0 | 0.00 | 0.12 | 0.00 | 82 | 1012.1 |
| 20260505061510 | 35 | 148 | 1.0 | 3.0 | 0.00 | 0.12 | 0.00 | 82 | 1012.1 |
| 20260505061006 | 35 | 152 | 1.0 | 3.0 | 0.00 | 0.12 | 0.00 | 82 | 1012.1 |
| 20260505060508 | 34 | 132 | 1.0 | 3.0 | 0.00 | 0.12 | 0.00 | 82 | 1012.2 |
| 20260505060013 | 34 | 103 | 1.0 | 3.0 | 0.00 | 0.12 | 0.00 | 82 | 1012.2 |
| 20260505055506 | 34 | 97 | 2.0 | 3.0 | 0.00 | 0.12 | 0.00 | 82 | 1012.2 |
| 20260505055006 | 34 | 110 | 1.0 | 4.0 | 0.00 | 0.12 | 0.00 | 81 | 1012.2 |
| 20260505054510 | 34 | 101 | 2.0 | 4.0 | 0.00 | 0.12 | 0.00 | 81 | 1012.1 |
| 20260505054003 | 34 | 90 | 2.0 | 4.0 | 0.00 | 0.12 | 0.00 | 81 | 1012.1 |
| 20260505053504 | 34 | 96 | 2.0 | 4.0 | 0.00 | 0.12 | 0.00 | 82 | 1012.1 |
| 20260505053009 | 34 | 105 | 2.0 | 4.0 | 0.00 | 0.12 | 0.00 | 82 | 1012.1 |
| 20260505052506 | 34 | 102 | 2.0 | 4.0 | 0.00 | 0.12 | 0.00 | 82 | 1012.1 |
| 20260505052003 | 33 | 96 | 2.0 | 4.0 | 0.00 | 0.12 | 0.00 | 81 | 1012.2 |
| 20260505051504 | 33 | 84 | 2.0 | 4.0 | 0.00 | 0.12 | 0.00 | 81 | 1012.1 |
| 20260505051003 | 33 | 98 | 2.0 | 4.0 | 0.00 | 0.12 | 0.00 | 81 | 1012.2 |
| 20260505050506 | 33 | 108 | 2.0 | 4.0 | 0.00 | 0.12 | 0.00 | 81 | 1012.1 |
| 20260505041610 | 33 | 94 | 2.0 | 4.0 | 0.00 | 0.12 | 0.00 | 80 | 1011.8 |
| 20260505041059 | 33 | 109 | 3.0 | 4.0 | 0.00 | 0.12 | 0.00 | 80 | 1011.8 |
| 20260505040603 | 33 | 108 | 2.0 | 4.0 | 0.00 | 0.12 | 0.00 | 80 | 1011.8 |
| 20260505035606 | 33 | 106 | 2.0 | 4.0 | 0.00 | 0.12 | 0.00 | 79 | 1011.7 |
| 20260505035057 | 33 | 92 | 2.0 | 4.0 | 0.00 | 0.12 | 0.00 | 78 | 1011.7 |
| 20260505034056 | 34 | 96 | 2.0 | 4.0 | 0.00 | 0.12 | 0.00 | 78 | 1011.6 |
| 20260505033555 | 34 | 96 | 1.0 | 4.0 | 0.00 | 0.12 | 0.00 | 78 | 1011.5 |
| 20260505033055 | 35 | 96 | 2.0 | 6.0 | 0.00 | 0.12 | 0.00 | 78 | 1011.5 |
| 20260505032554 | 34 | 98 | 3.0 | 6.0 | 0.00 | 0.12 | 0.00 | 79 | 1011.6 |
| 20260505032100 | 35 | 90 | 2.0 | 5.0 | 0.00 | 0.12 | 0.00 | 79 | 1011.5 |
| 20260505031559 | 35 | 104 | 2.0 | 4.0 | 0.00 | 0.12 | 0.00 | 79 | 1011.6 |
| 20260505031054 | 35 | 88 | 2.0 | 5.0 | 0.00 | 0.12 | 0.00 | 79 | 1011.7 |
| 20260505030554 | 35 | 88 | 3.0 | 5.0 | 0.00 | 0.12 | 0.00 | 79 | 1011.6 |
| 20260505030054 | 35 | 92 | 3.0 | 5.0 | 0.00 | 0.12 | 0.00 | 79 | 1011.7 |
| 20260505025554 | 35 | 85 | 2.0 | 4.0 | 0.00 | 0.12 | 0.00 | 79 | 1011.8 |
| 20260505025053 | 35 | 71 | 2.0 | 4.0 | 0.00 | 0.12 | 0.00 | 79 | 1011.9 |
| 20260505024054 | 35 | 85 | 2.0 | 5.0 | 0.00 | 0.12 | 0.00 | 79 | 1011.9 |
| 20260505023554 | 36 | 72 | 2.0 | 4.0 | 0.00 | 0.12 | 0.00 | 78 | 1011.9 |
| 20260505023054 | 36 | 64 | 1.0 | 6.0 | 0.00 | 0.12 | 0.00 | 79 | 1011.9 |
| 20260505022554 | 36 | 69 | 3.0 | 8.0 | 0.00 | 0.12 | 0.00 | 79 | 1011.9 |
| 20260505022053 | 36 | 101 | 3.0 | 6.0 | 0.00 | 0.12 | 0.00 | 80 | 1011.8 |
| 20260505021553 | 36 | 51 | 1.0 | 5.0 | 0.00 | 0.12 | 0.00 | 80 | 1011.8 |
| 20260505021051 | 36 | 42 | 2.0 | 5.0 | 0.00 | 0.12 | 0.00 | 81 | 1011.8 |
| 20260505020551 | 36 | 63 | 2.0 | 4.0 | 0.00 | 0.12 | 0.00 | 81 | 1011.8 |
| 20260505020051 | 36 | 83 | 1.0 | 6.0 | 0.00 | 0.12 | 0.00 | 81 | 1011.8 |
| 20260505015551 | 36 | 59 | 3.0 | 8.0 | 0.00 | 0.12 | 0.00 | 81 | 1011.7 |
| 20260505015051 | 36 | 76 | 2.0 | 4.0 | 0.00 | 0.12 | 0.00 | 82 | 1011.6 |
| 20260505014050 | 36 | 55 | 2.0 | 4.0 | 0.00 | 0.12 | 0.00 | 82 | 1011.8 |